234  
ASUS44 KMEG 202110  
RWRMEG  
MEMPHIS CWA HOURLY WEATHER ROUNDUP  
NATIONAL WEATHER SERVICE MEMPHIS TN  
400 PM CDT MON AUG 20 2018  
   
..WEST TENNESSEE
 
 
 
CITY SKY/WX TMP DP RH WIND PRES REMARKS
 
MEMPHIS INTL CLOUDY 82 76 81 S14 29.85F  
NWS MEMPHIS N/A 84 N/A N/A MISG N/A  
JACKSON FAIR 85 75 72 S13G20 29.86F HX 93  
COVINGTON MOSUNNY 82 75 78 SW12 29.84F  
SOMERVILLE MOSUNNY 86 75 70 S12G23 29.85F HX 95  
BOLIVAR SUNNY 86 73 66 S13G20 29.86F HX 93  
LEXINGTON SUNNY 84 70 61 S9G17 29.88F  
SELMER SUNNY 82 70 65 S9 29.89F  
DYERSBURG CLOUDY 83 73 72 S10 29.84F  
PARIS MOSUNNY 82 72 69 SW10 29.86F  
HUNTINGDON SUNNY 84 68 58 SW14 29.85F  
 
   
..EASTERN ARKANSAS
 
 
 
CITY SKY/WX TMP DP RH WIND PRES REMARKS
 
JONESBORO PTSUNNY 83 79 88 S16G23 29.80F HX 94  
WEST MEMPHIS FAIR 84 78 82 S13 29.83F HX 95  
BATESVILLE MOSUNNY 83 75 77 SW9G17 29.81F HX 90  
NEWPORT FAIR 84 77 79 S10 29.79F HX 94  
WALNUT RIDGE N/A 85 78 80 S13 29.77F HX 96  
BLYTHEVILLE CLOUDY 82 73 74 S15G22 29.83F  
SEARCY TSTM 75 75 100 MISG 29.83S  
STUTTGART FAIR 90 77 65 SW16G24 29.81F HX 103  
PINE BLUFF FAIR 91 74 57 W13G18 29.83F HX 100  
MONTICELLO FAIR 93 77 59 SW9 29.84F HX 107  
 
   
..NORTH MISSISSIPPI
 
 
 
CITY SKY/WX TMP DP RH WIND PRES REMARKS
 
TUPELO FAIR 86 70 58 S9 29.91F HX 90  
OXFORD FAIR 84 72 65 SW9 29.91F  
BATESVILLE PTSUNNY 86 75 70 S13G18 29.89S HX 95  
OLIVE BRANCH PTSUNNY 84 77 79 S15G22 29.86F HX 94  
TUNICA RAIN 79 75 89 S13 29.86F  
CLARKSDALE MOSUNNY 88 81 79 S9 29.88F HX 105  
CORINTH N/A 84 70 61 S12 29.89F  
GREENWOOD FAIR 88 75 65 SW10 29.90F HX 97  
COLUMBUS FAIR 89 73 59 SW6 29.92F HX 97  
STARKVILLE FAIR 88 70 55 SW8 29.95S HX 92  
GOLDEN TRIANGL FAIR 89 74 60 S10 29.94F HX 98  
 
   
..SOUTHEAST MISSOURI
 
 
 
CITY SKY/WX TMP DP RH WIND PRES REMARKS
 
KENNETT CLOUDY 82 75 78 S14G20 29.80F  
MALDEN PTSUNNY 82 72 69 S18G28 29.81S  
WEST PLAINS MOSUNNY 82 69 64 W10G18 29.82F  
POPLAR BLUFF PTSUNNY 82 75 79 S10G25 29.78F  
CAPE GIRARDEAU PTSUNNY 81 72 74 S12G21 29.78F  
 
   
..NORTHWEST ALABAMA
 
 
 
CITY SKY/WX TMP DP RH WIND PRES REMARKS
 
MUSCLE SHOALS FAIR 88 71 57 S7 29.93F HX 94  
 
   
..MIDDLE TENNESSEE
 
 
 
CITY SKY/WX TMP DP RH WIND PRES REMARKS
 
NASHVILLE PTSUNNY 84 70 62 S16 29.91F  
CLARKSVILLE FAIR 84 68 58 S12 29.86F  
DICKSON CLEAR 84 70 61 S14G20 29.89F  
COLUMBIA SUNNY 82 77 83 S6 29.89F HX 91  
LEWISBURG PTCLDY 81 75 83 S12 29.92F HAZE  
 
   
..WESTERN KENTUCKY
 
 
 
CITY SKY/WX TMP DP RH WIND PRES REMARKS
 
PADUCAH FAIR 83 70 64 S8G17 29.81F  
FORT CAMPBELL FAIR 85 70 60 S10 29.85F HX 90  
 
   
..CENTRAL ARKANSAS
 
 
 
CITY SKY/WX TMP DP RH WIND PRES REMARKS
 
LITTLE ROCK MOSUNNY 90 75 61 SW16G29 29.80F HX 100  
 
SKY/WX REPORTED AS FAIR MEANS FEW OR NO CLOUDS BELOW  
12 THOUSAND FEET.  
 
 
 
CLICK HERE TO GO TO PREVIOUS BULLETINS.

The Nexlab TN Page
The Nexlab MS Page
The Nexlab AR Page Main Text Page